Regional Weather Roundup
Issued by NWS

Home | Current Version | Previous Version | Text Only | Print | Product List | Glossary On
Versions: 1 2 3 4 5 6 7 8 9 10 11 12 13 14 15 16 17 18 19 20 21 22 23 24 25 26 27 28 29 30 31 32 33 34 35 36 37 38 39 40 41 42 43 44 45 46 47 48 49 50
246
ASUS45 KBOU 091507
RWRCO

WEATHER ROUNDUP FOR COLORADO
NATIONAL WEATHER SERVICE DENVER/BOULDER CO
800 AM MST FRI DEC 09 2016

NOTE: "FAIR" INDICATES FEW OR NO CLOUDS BELOW 12000 FEET WITH NO
SIGNIFICANT WEATHER AND/OR OBSTRUCTIONS TO VISIBILITY.

COZ001>005-013-030-031-091600-
...NORTHWEST COLORADO...

CITY           SKY/WX    TMP DP  RH WIND       PRES   REMARKS
CRAIG          CLOUDY    26  21  81 E7        30.22R WCI  18
HAYDEN         CLOUDY    25  18  74 E6        30.21R WCI  18
MEEKER         CLOUDY    34  21  59 SW5       30.24R WCI  30
MOUNT WERNER   NOT AVBL
STEAMBOAT SPGS CLOUDY    18  16  90 CALM      30.21R
WALDEN           N/A     28  21  74 SW14      30.15R WCI  17
$$

COZ006>008-011-091600-
...WEST CENTRAL VALLEYS...

CITY           SKY/WX    TMP DP  RH WIND       PRES   REMARKS
GRAND JUNCTION CLOUDY    24  17  74 CALM      30.31S
MONTROSE       CLOUDY    28  20  71 E6        30.33S WCI  22
EAGLE          CLOUDY    27  25  93 E6        30.28R WCI  20
RIFLE          CLOUDY    25  16  68 CALM      30.34R
DELTA          CLOUDY    29  17  62 NE3       30.34R
NUCLA          CLOUDY    27  18  69 SE6       30.35S WCI  20
$$

COZ017>023-064>068-091600-
...SOUTHWEST COLORADO...

CITY           SKY/WX    TMP DP  RH WIND       PRES   REMARKS
DURANGO        FAIR      22  14  71 NE5       30.33R WCI  16
CORTEZ         FAIR      22  20  92 NE5       30.33R WCI  16
PAGOSA SPRINGS FAIR      17  14  87 CALM      30.33R
TELLURIDE      CLOUDY    30  23  73 CALM      30.33S
WOLF CREEK PAS FOG       12  12 100 SW14      30.33R VSB 1/2 WCI  -3
$$

COZ009-010-012-014-032>034-037-058>063-091600-
...CENTRAL COLORADO...

CITY           SKY/WX    TMP DP  RH WIND       PRES   REMARKS
ASPEN          NOT AVBL
BUENA VISTA    CLOUDY    36  20  53 NW12G24   30.19R
COPPER MTN     LGT SNOW  23  18  80 MISG      30.20R
BERTHOUD PASS  SNOW      14   3  62 MISG      30.09F VSB<1/4
COTTONWOOD PAS LGT SNOW  32  21  64 W15G31    30.15R WCI  22
GUNNISON       LGT SNOW  18  15  88 CALM      30.34R FOG
KREMMLING      FLURRIES  34  27  75 SW12      30.21R WCI  25
LEADVILLE      LGT SNOW  23  19  85 N10       30.20R FOG     WCI  12
MONARCH PASS   CLOUDY    18  14  86 W48G59    30.27F WCI  -6
SALIDA         FAIR      40  21  47 SW22G29   30.23R
SUNLIGHT       LGT SNOW  19  18  93 SW14G24   30.27R WCI   6
WILKERSON PASS FAIR      21  18  86 W20G36    30.12F WCI   6
$$

COZ069>075-091600-
...SAN LUIS VALLEY/SANGRE DE CRISTO MOUNTAINS...

CITY           SKY/WX    TMP DP  RH WIND       PRES   REMARKS
ALAMOSA        FAIR       7   0  73 SE3       30.29R
LA VETA PASS   FAIR      16  12  86 NE36G45   30.12S WCI  -6
SAGUACHE       FAIR      12   7  79 W5        30.28R WCI   4
$$

COZ035-036-038>040-091600-
...NORTHERN COLORADO FRONT RANGE...

CITY           SKY/WX    TMP DP  RH WIND       PRES   REMARKS
DENVER INTL AP FAIR      11   5  77 VRB7      30.06F WCI   0
DMNS CITY PARK   N/A     14   7  75 E6        30.07F WCI   5
AURORA         PTCLDY    19  15  88 SE12      30.07R WCI   6
FRONT RANGE AP PTCLDY    12   9  85 S7        30.08S WCI   2
ERIE MUNI ARPT FAIR       6   4  89 N7        30.10R WCI  -5
BOULDER MUN AP FAIR      10   7  85 NE3       30.05F
CENTENNIAL     FAIR      21  16  81 SE7       30.07R WCI  12
BROOMFIELD     PTCLDY    14  10  85 SW6       30.06S WCI   5
FORT COLLINS   FAIR       5   5 100 CALM      30.09S
LONGMONT       FAIR       8   3  80 CALM      30.10F
$$

COZ041-046-047-076>085-087-088-091600-
...PIKES PEAK/PALMER DIVIDE AND SOUTHERN FOOTHILLS...

CITY           SKY/WX    TMP DP  RH WIND       PRES   REMARKS
COLO. SPRINGS  FAIR      23  14  68 N7        30.12R WCI  15
A. F. ACADEMY  FAIR      16  11  80 NE6       30.10R WCI   8
SCHRIEVER AFB  NOT AVBL
ELLICOTT       FAIR     N/A N/A N/A CALM        N/A
FALCON         FAIR      34  20  56 W12       30.11R WCI  26
FORT CARSON    FAIR      18  11  73 VRB3      30.10R
LIMON          FAIR       7   3  84 CALM      30.13R
MONUMENT HILL  FAIR      32  21  64 SW6       30.09S WCI  26
TRINIDAD       FAIR      19  10  68 W3        30.14R
$$

COZ042>045-048>051-090-091-091600-
...NORTHEAST COLORADO...

CITY           SKY/WX    TMP DP  RH WIND       PRES   REMARKS
GREELEY ARPT   FAIR       5   1  83 CALM      30.13S
AKRON          FAIR       8   3  80 SW8       30.11S WCI  -4
BURLINGTON     FAIR      13   5  70 S14       30.19R WCI  -2
WRAY           FAIR      10   5  79 S6        30.22F WCI   1
STERLING       FAIR      10   3  72 SW7       30.15S WCI   0
HOLYOKE        FAIR      14   9  79 S12       30.19F WCI   0
FORT MORGAN    FAIR       7   3  84 SW5       30.12F WCI  -2
$$

COZ086-089-092>099-091600-
...SOUTHEAST COLORADO...

CITY           SKY/WX    TMP DP  RH WIND       PRES   REMARKS
PUEBLO         FAIR      12   4  70 NW9       30.18R WCI   0
LA JUNTA       FAIR      12   3  67 W7        30.22R WCI   1
LAMAR          FAIR      11   6  81 W7        30.23R WCI   0
SPRINGFIELD      N/A     17  14  88 CALM      30.16F
$$




USA.gov is the U.S. government's official web portal to all federal, state and local government web resources and services.